Location: Casteau
(50.5142°N, 4.0161°E)
Time: 20:56:03
(UTC+00:00)

Tiros 1 - Pass Details

Date: 04 August 2021
Orbit: 630 x 663 km, 48.4° (Epoch: 28 September)

Event Time Altitude Azimuth Distance (km) Brightness Sun altitude
Rises 22:44:26 0° 279° (W) 2,967 10.9 -21.0°
Reaches altitude 10° 22:47:32 10° 258° (WSW) 2,045 9.8 -21.1°
Enters shadow 22:49:15 15° 238° (WSW) 1,725 9.2 -21.2°
Maximum altitude 22:50:27 16° 220° (SW) 1,651 - -21.2°
Drops below altitude 10° 22:53:20 10° 181° (S) 2,025 - -21.4°
Sets 22:56:23 0° 161° (SSE) 2,923 - -21.5°
